Weather History for Lincoln, CA

Change the Weather History Date:

Sunday, April 21, 2013

  Actual Average (KAUN) Record (KAUN)
Temperature  
Mean Temperature 63 °F -  
Max Temperature 84 °F 68 °F 87 °F (1950)
Min Temperature 42 °F 45 °F 31 °F (1971)
Degree Days  
Heating Degree Days 2    
Growing Degree Days 13 (Base 50)    
Moisture  
Dew Point 43 °F    
Average Humidity 50    
Maximum Humidity 93    
Minimum Humidity 19    
Precipitation  
Precipitation 0.00 in - - ()
Sea Level Pressure  
Sea Level Pressure 29.96 in    
Wind  
Wind Speed 2 mph (North)    
Max Wind Speed 7 mph    
Max Gust Speed -    
Visibility 10 miles    
Events      
Averages and records for this station are not official NWS values.
T = Trace of Precipitation, MM = Missing Value Source: NWS Daily Summary

Daily Weather History Graph

Daily Weather History Graph

Search for Another Location

Airport:

Trip Planner

Search our weather history database for the weather conditions in past years. The results will help you decide how hot, cold, wet, or windy it might be!

Date:

Astronomy

Apr. 21, 2013 Rise Set
Actual Time 6:19 AM PDT 7:48 PM PDT
Civil Twilight 5:52 AM PDT 8:16 PM PDT
Nautical Twilight 5:18 AM PDT 8:50 PM PDT
Astronomical Twilight 4:42 AM PDT 9:26 PM PDT
Moon 3:41 PM PDT (4/21) 3:42 AM PDT (4/21)
Length of Visible Light 14h 24m
Length of Day
13h 28m
Waxing Gibbous, 81% of the Moon is Illuminated
Apr 21
Waxing Gibbous
Apr 25
Full
May 2
Last Quarter
May 9
New
May 17
First Quarter

Hourly Weather History & Observations

Time (PDT) Temp. Windchill Dew Point Humidity Pressure Visibility Wind Dir Wind Speed Gust Speed Precip Events Conditions
2:35 AM 48.2 °F - 41.0 °F 76% 29.98 in 10.0 mi Calm Calm - N/A   Clear
2:55 AM 50.0 °F - 41.0 °F 71% 29.97 in 10.0 mi Calm Calm - N/A   Clear
3:15 AM 48.2 °F - 41.0 °F 76% 29.97 in 10.0 mi Calm Calm - N/A   Clear
3:35 AM 50.0 °F - 41.0 °F 71% 29.97 in 10.0 mi Calm Calm - N/A   Clear
3:55 AM 44.6 °F - 39.2 °F 81% 29.97 in 10.0 mi Calm Calm - N/A   Clear
4:15 AM 44.6 °F 43.1 °F 39.2 °F 81% 29.97 in 10.0 mi North 3.5 mph - N/A   Clear
5:35 AM 44.6 °F 43.1 °F 41.0 °F 87% 29.98 in 10.0 mi North 3.5 mph - N/A   Clear
5:55 AM 42.8 °F - 41.0 °F 93% 29.98 in 10.0 mi Calm Calm - N/A   Clear
6:15 AM 42.8 °F 41.1 °F 39.2 °F 87% 29.98 in 10.0 mi North 3.5 mph - N/A   Clear
6:35 AM 44.6 °F - 41.0 °F 87% 29.99 in 10.0 mi Calm Calm - N/A   Clear
6:55 AM 42.8 °F - 39.2 °F 87% 30.00 in 10.0 mi Calm Calm - N/A   Clear
7:15 AM 46.4 °F - 42.8 °F 87% 30.01 in 10.0 mi Calm Calm - N/A   Clear
7:35 AM 50.0 °F - 44.6 °F 82% 30.02 in 10.0 mi Calm Calm - N/A   Clear
7:55 AM 51.8 °F - 44.6 °F 76% 30.02 in 10.0 mi Calm Calm - N/A   Clear
8:15 AM 55.4 °F - 46.4 °F 72% 30.03 in 10.0 mi Calm Calm - N/A   Clear
8:35 AM 59.0 °F - 50.0 °F 72% 30.03 in 10.0 mi Calm Calm - N/A   Clear
8:55 AM 60.8 °F - 48.2 °F 63% 30.02 in 10.0 mi Calm Calm - N/A   Clear
9:15 AM 64.4 °F - 46.4 °F 52% 30.02 in 10.0 mi NW 3.5 mph - N/A   Clear
9:35 AM 66.2 °F - 46.4 °F 49% 30.02 in 10.0 mi WNW 3.5 mph - N/A   Clear
9:55 AM 68.0 °F - 44.6 °F 43% 30.03 in 10.0 mi NW 5.8 mph - N/A   Clear
10:15 AM 69.8 °F - 44.6 °F 40% 30.03 in 10.0 mi NNW 5.8 mph - N/A   Clear
10:35 AM 69.8 °F - 42.8 °F 38% 30.02 in 10.0 mi WNW 3.5 mph - N/A   Clear
10:55 AM 71.6 °F - 44.6 °F 38% 30.02 in 10.0 mi NNW 4.6 mph - N/A   Clear
11:15 AM 73.4 °F - 41.0 °F 31% 30.01 in 10.0 mi NW 3.5 mph - N/A   Clear
11:35 AM 73.4 °F - 42.8 °F 33% 30.01 in 10.0 mi WNW 5.8 mph - N/A   Clear
11:55 AM 75.2 °F - 41.0 °F 29% 30.00 in 10.0 mi West 4.6 mph - N/A   Clear
12:15 PM 75.2 °F - 39.2 °F 27% 30.00 in 10.0 mi NW 4.6 mph - N/A   Clear
12:35 PM 77.0 °F - 42.8 °F 29% 29.99 in 10.0 mi NW 4.6 mph - N/A   Clear
12:55 PM 77.0 °F - 41.0 °F 28% 29.98 in 10.0 mi WNW 6.9 mph - N/A   Clear
1:15 PM 78.8 °F - 37.4 °F 23% 29.98 in 10.0 mi West 6.9 mph - N/A   Clear
1:35 PM 78.8 °F - 41.0 °F 26% 29.98 in 10.0 mi WNW 5.8 mph - N/A   Clear
1:55 PM 80.6 °F - 37.4 °F 21% 29.97 in 10.0 mi West 3.5 mph - N/A   Clear
2:15 PM 80.6 °F - 35.6 °F 20% 29.97 in 10.0 mi Calm Calm - N/A   Clear
2:35 PM 80.6 °F - 41.0 °F 24% 29.96 in 10.0 mi North 3.5 mph - N/A   Clear
2:55 PM 82.4 °F - 39.2 °F 21% 29.96 in 10.0 mi NNW 6.9 mph - N/A   Clear
3:15 PM 82.4 °F - 39.2 °F 21% 29.95 in 10.0 mi NNW 4.6 mph - N/A   Clear
3:35 PM 82.4 °F - 41.0 °F 23% 29.94 in 10.0 mi NNW 5.8 mph - N/A   Clear
3:55 PM 84.2 °F - 41.0 °F 22% 29.93 in 10.0 mi NNW 5.8 mph - N/A   Clear
4:15 PM 84.2 °F - 39.2 °F 20% 29.93 in 10.0 mi North 5.8 mph - N/A   Clear
4:35 PM 82.4 °F - 41.0 °F 23% 29.92 in 10.0 mi NE 3.5 mph - N/A   Clear
4:55 PM 84.2 °F - 39.2 °F 20% 29.92 in 10.0 mi Calm Calm - N/A   Clear
5:15 PM 84.2 °F - 37.4 °F 19% 29.92 in 10.0 mi Calm Calm - N/A   Clear
5:35 PM 84.2 °F - 37.4 °F 19% 29.91 in 10.0 mi Calm Calm - N/A   Clear
5:55 PM 84.2 °F - 37.4 °F 19% 29.91 in 10.0 mi Calm Calm - N/A   Clear
6:15 PM 82.4 °F - 44.6 °F 26% 29.91 in 10.0 mi Calm Calm - N/A   Clear
6:35 PM 82.4 °F - 48.2 °F 30% 29.90 in 10.0 mi Calm Calm - N/A   Clear
6:55 PM 80.6 °F - 50.0 °F 34% 29.90 in 10.0 mi Calm Calm - N/A   Clear
7:15 PM 80.6 °F - 48.2 °F 32% 29.90 in 10.0 mi Calm Calm - N/A   Clear
7:35 PM 77.0 °F - 50.0 °F 39% 29.90 in 10.0 mi Calm Calm - N/A   Clear
7:55 PM 75.2 °F - 44.6 °F 34% 29.90 in 10.0 mi ENE 4.6 mph - N/A   Clear
8:15 PM 66.2 °F - 51.8 °F 60% 29.91 in 10.0 mi East 3.5 mph - N/A   Clear
8:35 PM 60.8 °F - 51.8 °F 72% 29.91 in 10.0 mi ENE 5.8 mph - N/A   Clear
8:55 PM 62.6 °F - 50.0 °F 63% 29.92 in 10.0 mi ESE 4.6 mph - N/A   Clear
9:15 PM 64.4 °F - 48.2 °F 56% 29.92 in 10.0 mi East 5.8 mph - N/A   Clear
9:35 PM 55.4 °F - 50.0 °F 82% 29.92 in 10.0 mi East 4.6 mph - N/A   Clear
9:55 PM 57.2 °F - 50.0 °F 77% 29.93 in 10.0 mi Calm Calm - N/A   Clear
10:15 PM 55.4 °F - 48.2 °F 77% 29.93 in 10.0 mi East 6.9 mph - N/A   Clear
10:35 PM 55.4 °F - 48.2 °F 77% 29.93 in 10.0 mi ENE 6.9 mph - N/A   Clear
10:55 PM 55.4 °F - 48.2 °F 77% 29.93 in 10.0 mi ENE 6.9 mph - N/A   Clear
11:15 PM 55.4 °F - 46.4 °F 72% 29.93 in 10.0 mi ENE 4.6 mph - N/A   Clear
11:35 PM 62.6 °F - 44.6 °F 52% 29.93 in 10.0 mi Calm Calm - N/A   Clear
11:55 PM 59.0 °F - 44.6 °F 59% 29.93 in 10.0 mi East 6.9 mph - N/A   Clear